Starlink 1815

operational
NORAD ID: 46713 Int'l Des: 2020-073 Owner: SPXS Country: US Constellation: starlink
LEOCIRCULAR

About Starlink 1815

Description loading...

Live Position

Loading 3D Globe...

Upcoming Passes

Altitude History

Altitude vs Time

uPlot chart will show altitude changes over time

Two-Line Element Set

1 46713U 20073AV 26061.49947501 .00109668 00000-0 10195-2 0 9995
2 46713 53.0452 237.6857 0001289 305.4670 54.6225 15.66602266296556
Epoch: Mar 2, 2026 • Age: 27 hours

Current Status

Altitude 381.0 km
Velocity 7.68 km/s
Sub-Earth Point -39.57°S, 109.38°W
Launch Date Oct 18, 2020
Age 5.3 years
Type internet

Technical Details

Classification Payload
Mass 260.00 kg
Dry Mass 248.00 kg
Total Mass 260.00 kg
Length 0.20 m
Diameter 2.80 m
Span 9.00 m
Shape Box + pan
Manufacturer SPXS
Bus Type Starlink
Phase Status In Orbit
Owner/State SPXS/US

Large Constellations

Loading constellations...